CDT,Max TemperatureF,Mean TemperatureF,Min TemperatureF,Max Dew PointF,MeanDew PointF,Min DewpointF,Max Humidity, Mean Humidity, Min Humidity, Max Sea Level PressureIn, Mean Sea Level PressureIn, Min Sea Level PressureIn, Max VisibilityMiles, Mean VisibilityMiles, Min VisibilityMiles, Max Wind SpeedMPH, Mean Wind SpeedMPH, Max Gust SpeedMPH,PrecipitationIn, CloudCover, Events, WindDirDegrees
2013-8-1,93,83,73,81,74,71,100,78,49,30.07,30.02,29.97,10,10,1,10,2,,0.00,2,,359
2013-8-2,94,83,72,83,75,68,100,80,42,30.04,30.01,29.97,10,8,4,7,1,,0.00,1,,164
2013-8-3,93,84,76,82,75,70,100,81,49,30.10,30.05,30.00,10,9,5,6,2,,0.00,0,,223
2013-8-4,93,83,73,81,74,66,100,80,41,30.15,30.09,30.03,10,8,3,7,1,,0.00,1,,244
2013-8-5,94,84,75,81,75,70,100,77,47,30.08,30.03,29.96,10,10,5,10,3,,0.00,0,,209
2013-8-6,94,85,76,78,73,67,100,70,41,30.01,29.96,29.91,10,10,10,9,5,,0.00,0,,208
2013-8-7,94,86,77,80,73,65,100,72,38,30.00,29.94,29.90,10,10,7,8,5,,0.00,0,,208
2013-8-8,94,84,74,79,72,63,100,75,36,29.98,29.94,29.90,10,8,4,8,4,,0.00,0,,200
2013-8-9,95,82,70,78,71,67,100,69,42,30.05,29.99,29.95,10,9,5,8,4,,0.00,0,,187
2013-8-10,95,84,72,78,73,68,100,76,42,30.12,30.06,30.01,10,10,5,14,4,21,0.00,1,Thunderstorm,177
2013-8-11,95,84,72,78,73,67,100,77,40,30.16,30.10,30.05,10,10,5,12,3,21,0.00,1,Rain-Thunderstorm,182
2013-8-12,93,83,74,78,73,69,100,75,47,30.14,30.08,30.00,10,10,10,14,5,22,0.00,1,Thunderstorm,204
2013-8-13,91,82,72,80,75,67,100,88,55,30.06,30.01,29.98,10,9,1,12,4,17,0.71,3,Rain-Thunderstorm,239
2013-8-14,86,78,71,76,70,59,100,80,49,30.10,30.03,29.99,10,9,1,14,4,21,0.00,5,,32
2013-8-15,84,72,61,68,61,56,100,73,38,30.11,30.06,30.01,10,10,10,9,5,,0.00,0,,9
2013-8-16,84,72,59,65,60,55,100,71,38,30.09,30.06,30.02,10,10,7,12,3,16,0.00,0,,360
2013-8-17,85,74,62,71,65,61,100,81,44,30.09,30.05,30.01,10,10,5,12,3,20,0.00,1,,7
2013-8-18,88,76,64,72,66,60,100,79,38,30.12,30.07,30.03,10,8,2,8,1,,0.00,2,,60
2013-8-19,89,76,64,72,66,58,100,75,34,30.13,30.07,30.01,10,9,2,8,1,,0.00,2,,61
2013-8-20,92,78,65,74,66,54,100,74,28,30.13,30.07,30.03,10,10,5,9,1,,0.00,0,,151
2013-8-21,92,80,67,73,69,61,100,74,36,30.17,30.12,30.07,10,10,7,9,1,,0.00,0,,180
2013-8-22,93,81,69,75,70,64,100,75,37,30.16,30.10,30.01,10,10,5,8,2,17,0.00,1,Rain,189
2013-8-23,95,82,70,80,72,63,100,81,36,30.09,30.04,29.98,10,10,2,9,1,18,0.14,2,Rain-Thunderstorm,51
2013-8-24,94,82,69,76,70,62,100,72,34,30.15,30.09,30.05,10,9,3,13,2,17,0.00,1,,115
2013-8-25,93,80,68,74,68,62,100,66,35,30.24,30.18,30.13,10,10,7,13,4,16,0.00,2,,114
2013-8-26,94,82,70,75,67,54,100,68,26,30.26,30.20,30.14,10,10,7,10,2,16,0.00,1,,135
2013-8-27,92,78,66,74,67,61,100,74,35,30.20,30.14,30.07,10,10,7,8,1,,0.00,2,,196
2013-8-28,95,80,67,70,64,55,100,63,27,30.14,30.09,30.04,10,10,7,6,2,,0.00,2,,156
2013-8-29,95,80,67,71,64,55,100,63,27,30.13,30.08,30.02,10,10,10,9,2,,0.00,1,,147
2013-8-30,95,82,70,73,66,61,95,60,32,30.08,30.01,29.95,10,10,10,8,4,,0.00,0,,200
2013-8-31,96,84,72,73,67,61,100,60,32,30.01,29.94,29.88,10,10,5,9,6,20,0.00,0,,203